Content
SEND FEEDBACK

Daily
Averages
Monthly
Summary
United States of America

NEW YORK - CENTRAL PARK, NEW YORK


Home > North America > United States > New York
Elevation: 14 feet     Latitude: 40 47N     Longitude: 073 58W

WEATHER
 
SELECT A DAY
Number of Records: 150,506;   Date Range: 11/1/95 - 9/29/14
 
SHARE

PRINT THIS DATA

[ ← Previous Day ]
WEATHER ALMANAC - DECEMBER 15, 2013
[ Next Day → ]
[ °C ]   °F
Weather ElementAverageHighLow
Temperature34.8 °F39 °F (1:51 pm)30 °F (8:03 am)
Dewpoint27.9 °F34 °F (2:29 am)19 °F (10:51 pm)
Humidity77.2 %93 % (1:47 am)54 % (7:51 pm)
Barometer29.64 in29.84 in (10:51 pm)29.51 in (3:51 am)
Wind Speed8.7 mph19.6 mph (2:51 am)
Wind Gust26.5 mph (2:51 am)
Weather ElementAverage
Visibility7.6 mi
Wind DirectionS (183.7 °)

Weather ElementTotal
Precipitation1.71 in
Heating Degree Days30.5 (Base 65)
Averaged from 41 records on December 15, 2013
WEATHER CONDITIONS BREAKOUT
WIND DIRECTION BREAKOUT
WEATHER BY HOUR - DECEMBER 15, 2013
[ °C ]   °F
Local TimeTemperatureDewpointHumidityBarometerVisibilityWind DirectionWind SpeedGust SpeedPrecipitationEventsConditions
12:38 AM34.0 °F32.0 °F92 %29.75 in2.0 miEast (80°)11.5 mph19.6 mph0.21 inRainHeavy Rain
12:51 AM35.1 °F32.0 °F89 %29.70 in1.8 miENE (70°)15.0 mph25.3 mph0.27 inRainHeavy Rain
1:13 AM35.1 °F32.0 °F89 %29.69 in2.0 miENE (70°)10.4 mph21.9 mph0.11 inRainHeavy Rain
1:34 AM35.1 °F32.0 °F89 %29.67 in1.5 miENE (70°)12.7 mph24.2 mph0.21 inRainHeavy Rain
1:47 AM35.6 °F33.8 °F93 %29.65 in2.0 miNE (50°)12.7 mph20.7 mph0.27 inRainHeavy Rain
1:51 AM36.0 °F33.1 °F89 %29.64 in2.0 miNE (40°)9.2 mph20.7 mph0.29 inRainRain
2:29 AM37.0 °F34.0 °F89 %29.60 in3.0 miENE (60°)13.8 mph21.9 mph0.12 inRainLight Rain
2:51 AM36.0 °F33.1 °F89 %29.57 in3.0 miENE (60°)19.6 mph26.5 mph0.14 inRainLight Rain
3:51 AM37.0 °F34.0 °F89 %29.51 in4.0 miNE (50°)13.8 mph21.9 mph0.03 inOvercast
4:32 AM34.0 °F32.0 °F92 %29.55 in2.5 miNorth (350°)9.2 mph0.02 inOvercast
4:38 AM33.1 °F30.0 °F89 %29.55 in3.0 miNorth0.02 inOvercast
4:51 AM32.0 °F28.9 °F88 %29.52 in4.0 miVariable6.9 mph19.6 mph0.02 inOvercast
5:18 AM32.0 °F28.9 °F88 %29.57 in7.0 miVariable4.6 mphOvercast
5:51 AM32.0 °F28.9 °F88 %29.53 in5.0 miNorth (360°)5.8 mphOvercast
6:51 AM32.0 °F28.9 °F88 %29.55 in10.0 miVariable4.6 mphOvercast
7:46 AM30.2 °F26.6 °F86 %29.58 in10.0 miWest (280°)6.9 mphOvercast
7:51 AM30.9 °F26.1 °F82 %29.55 in10.0 miWNW (290°)8.1 mphOvercast
8:03 AM30.0 °F26.1 °F85 %29.57 in10.0 miWNW (300°)5.8 mphOvercast
8:14 AM30.0 °F25.0 °F82 %29.57 in10.0 miWNW (300°)6.9 mph17.3 mphOvercast
8:51 AM30.9 °F26.1 °F82 %29.57 in10.0 miWNW (300°)5.8 mphOvercast
9:51 AM32.0 °F27.0 °F82 %29.58 in10.0 miNW (310°)4.6 mphOvercast
10:21 AM32.0 °F27.0 °F82 %29.60 in10.0 miWest (280°)4.6 mphOvercast
10:51 AM34.0 °F27.0 °F75 %29.59 in10.0 miWNW (290°)8.1 mphOvercast
11:03 AM34.0 °F28.0 °F79 %29.61 in10.0 miWest (280°)9.2 mph16.1 mphMostly Cloudy
11:20 AM35.1 °F28.0 °F76 %29.60 in10.0 miWest (280°)6.9 mphScattered Clouds
11:27 AM35.1 °F28.0 °F76 %29.60 in10.0 miWNW (290°)10.4 mph19.6 mphMostly Cloudy
11:51 AM36.0 °F28.9 °F76 %29.59 in10.0 miWNW (300°)8.1 mphOvercast
12:51 PM37.0 °F28.9 °F73 %29.59 in10.0 miWNW (290°)10.4 mph20.7 mphOvercast
1:51 PM39.0 °F28.0 °F65 %29.61 in10.0 miWest (280°)9.2 mph18.4 mphMostly Cloudy
2:33 PM39.0 °F28.0 °F65 %29.66 in10.0 miWest (280°)8.1 mph20.7 mphOvercast
2:40 PM39.0 °F28.0 °F65 %29.66 in10.0 miVariable5.8 mph20.7 mphOvercast
2:51 PM39.0 °F27.0 °F62 %29.65 in10.0 miWNW (300°)9.2 mph18.4 mphOvercast
3:51 PM37.9 °F27.0 °F65 %29.70 in10.0 miNorthOvercast
4:51 PM37.9 °F27.0 °F65 %29.72 in10.0 miWest (270°)11.5 mph16.1 mphOvercast
5:51 PM37.9 °F27.0 °F65 %29.74 in10.0 miWNW (300°)4.6 mphOvercast
6:51 PM37.9 °F25.0 °F60 %29.77 in10.0 miVariable3.5 mphOvercast
7:51 PM37.0 °F21.9 °F54 %29.79 in10.0 miNorthMostly Cloudy
8:51 PM36.0 °F21.0 °F55 %29.81 in10.0 miWest (280°)10.4 mph19.6 mphPartly Cloudy
9:51 PM34.0 °F21.0 °F59 %29.83 in10.0 miWNW (290°)6.9 mphPartly Cloudy
10:51 PM34.0 °F19.0 °F54 %29.84 in10.0 miWSW (240°)8.1 mphOvercast
11:51 PM33.1 °F19.0 °F56 %29.84 in10.0 miWSW (240°)8.1 mphScattered Clouds
Hourly data recorded from KNYC, located miles away from New York - Central Park, New York







STORIES FROM OUR PARTNERS